sat.trackr.live / text

‹ back to catalog

QIANFAN-17

NORAD 60395 · 2024-140S

PAYLOAD ACTIVE UNKNOWN

§ Identity

Operator
Country
PRC
Launch date
2024-08-06
Launch site
TAISC
Launch vehicle
Mass (kg)
RCS (m²)

External: N2YO · Heavens-Above · Gunter

§ Orbital elements

Epoch: 2026-05-25T02:49:27.746400Z

Period
106.59 min
Inclination
88.9726°
Eccentricity
0.0017030
Mean motion
13.51006620 rev/d
Perigee alt
1,055.9 km
Apogee alt
1,081.2 km
Semi-major
7,446.7 km
B*
1.0198e-4
RAAN
282.4979°
Arg perigee
95.2864°
Mean anomaly
265.0231°
Rev number
9,019

§ Raw data

QIANFAN-171 60395U 24140S   26145.11768225  .00000078  00000+0  10198-3 0  99902 60395  88.9726 282.4979 0017030  95.2864 265.0231 13.51006620 90193

JSON: /api/v1/satellites/60395 · /tle

For live sub-satellite position, see the globe view (requires WebGL).

§ Visibility from observer

Set your observer location to see the next 7 days of passes ≥ 10°. The values pass through the URL so the page stays shareable.

No JS? Fill the form by hand. The geolocation button needs JavaScript.